Regional Weather Roundup
Issued by NWS Upton, NY

Current Version | Previous Version | Graphics & Text | Print | Product List | Glossary Off
Versions: 1 2 3 4 5 6 7 8 9 10 11 12 13 14 15 16 17 18 19 20 21 22 23 24 25 26 27 28 29 30 31 32 33 34 35 36 37 38 39 40 41 42 43 44 45 46 47 48 49 50
000 ASUS41 KOKX 241809 RWROKX REGIONAL WEATHER ROUNDUP NATIONAL WEATHER SERVICE NEW YORK NY 200 PM EDT MON JUL 24 2017 NOTE: "FAIR" INDICATES FEW OR NO CLOUDS BELOW 12,000 FEET WITH NO SIGNIFICANT WEATHER AND/OR OBSTRUCTIONS TO VISIBILITY. NYZ071-072-176-178-NJZ106-104-241900- NEW YORK CITY METRO AREA CITY SKY/WX TMP DP RH WIND PRES REMARKS Central Park CLOUDY 64 61 90 VRB7 29.87R Bronx Bot Gard N/A 63 57 82 N1 29.85S LaGuardia APRT CLOUDY 66 61 84 N13 29.83R Kennedy INTL CLOUDY 65 62 90 N21 29.83R Breezy Point N/A 64 N/A N/A N15G22 N/A Newark/Liberty CLOUDY 67 59 75 N15 29.84R Teterboro CLOUDY 66 59 78 NE13 29.83S $$ NYZ177-179-078>081-241900- LONG ISLAND NEW YORK CITY SKY/WX TMP DP RH WIND PRES REMARKS Jones Beach N/A 63 N/A N/A N22G29 N/A Matinecock PT N/A 63 N/A N/A NE16 N/A Farmingdale CLOUDY 62 59 90 N21 29.82R MacArthur/ISP LGT RAIN 62 61 96 N17 29.79R FOG Shirley LGT RAIN 63 62 97 N12G24 29.80R Mt Sinai Harb N/A 61 N/A N/A N22 N/A Westhampton HVY RAIN 64 62 93 N13 29.77S FOG East Hampton LGT RAIN 62 60 95 N10G18 29.77S Montauk N/A 63 63 100 NE12G21 29.79F $$ NYZ052-065-067-241900- HUDSON VALLEY CITY SKY/WX TMP DP RH WIND PRES REMARKS White Plains PTSUNNY 64 57 78 N9G17 29.84R Larchmont Harb N/A 63 N/A N/A N14 N/A Croton O-T Hud N/A 64 N/A N/A NE2G8 N/A Newburgh PTSUNNY 68 61 77 NE16 29.86F Montgomery CLOUDY 67 60 78 NE9 29.86S Poughkeepsie CLOUDY 66 57 72 NE10 29.85F Albany CLOUDY 63 58 83 NE7 29.89F $$ NJZ001-105-106-008-010-013-015-019>022-104-241900- NEW JERSEY CITY SKY/WX TMP DP RH WIND PRES REMARKS Newark/Liberty CLOUDY 67 59 75 N15 29.84R Teterboro CLOUDY 66 59 78 NE13 29.83S Caldwell CLOUDY 67 61 81 NE8 29.85R Somerville CLOUDY 75 65 70 VRB6 29.82R Linden CLOUDY 69 59 72 NE10 29.84R Perth Amboy N/A 68 N/A N/A N12G17 N/A Sussex CLOUDY 67 61 81 NE7 29.86R Andover N/A 68 60 75 VRB5 29.86R Trenton CLOUDY 77 66 68 NE9 29.83R Millville MOSUNNY 86 72 62 NW13G20 29.80R HX 92 Atlantic City MOSUNNY 87 71 58 W13 29.79R HX 93 Wrightstown PTSUNNY 76 66 73 N7 29.81R Toms River PTSUNNY 78 68 71 N13G20 29.81R Belmar NOT AVBL $$ PAZ047>061-062-071-241900- EASTERN PENNSYLVANIA CITY SKY/WX TMP DP RH WIND PRES REMARKS Philadelphia MOSUNNY 84 66 54 NW10G20 29.81R Allentown PTSUNNY 80 65 59 N6 29.82S Scranton PTSUNNY 79 66 64 CALM 29.81F $$ CTZ002-004>006-009-010-012-RIZ004-006-007-MAZ004-011-015-241900- SOUTHERN NEW ENGLAND IN CT CITY SKY/WX TMP DP RH WIND PRES REMARKS Bradley INTL LGT RAIN 59 58 96 N10 29.89S FOG Hartford RAIN N/A N/A N/A N14G23 29.87S FOG Danbury CLOUDY 62 57 83 NE13G22 29.87R Wtrbury/Oxford CLOUDY 59 52 77 NE14G26 29.85R Bridgeport LGT RAIN 63 58 83 NE21G30 29.82R Meriden CLOUDY 59 57 93 N12G20 29.86S New Haven CLOUDY 59 56 89 N17 29.83S Chester LGT RAIN 57 57 100 N13 29.83S Groton RAIN 60 58 92 NE16G22 29.79F FOG Wilimantic LGT RAIN 61 58 90 NE10G18 29.84F IN RI CITY SKY/WX TMP DP RH WIND PRES REMARKS Providence LGT RAIN 58 58 100 NE15 29.86S FOG Block Island LGT RAIN 63 62 97 NE16G22 29.81S Westerly RAIN 61 59 93 NE10 29.81F FOG IN MA CITY SKY/WX TMP DP RH WIND PRES REMARKS Boston HVY RAIN 58 57 97 NE17G26 29.91R VSB 1 Worcester RAIN 54 52 93 NE13G23 29.91F FOG Westfield CLOUDY 60 57 89 N12 29.90S Provincetown RAIN 60 57 89 E20G28 29.84F FOG Nantucket CLOUDY 63 63 100 E14 29.80S FOG $$ ANZ330-335-338-340-345-350-353-355-241900- COASTAL MARINE OBSERVATIONS STATION/POSITION TIME SKY/WX TEMP WIND PRES VSBY WAVE AIR SEA DIR/SP/G HT/PER (UTC) (F) (DEG/KT/KT) (MB) (MI) (FT/S) NY HARB ENTRANCE 1650 67 73 350/ 19/ 23 1007.6 5/ 7 20 S FIRE ISLAND 1750 71 75 340/ 16/ 19 1007.1 5/ 7 GREAT SOUTH BAY 1730 65 79 20/ 16/ 27 N/A 23 SSW MONTAUK P 1650 75 74 1007.6 7/ 7 15 E BARNEGAT LI 1730 75 N/A 5/ 6 HUDSON CANYON 1650 79 78 230/ 17/ 21 1007.0 6/ 6 KINGS POINT 1736 64 72 60/ 10/ 18 1010.0 EXECUTION ROCKS 1745 63 40/ 16/ 21 N/A CENTRAL LI SOUND NOT AVBL EASTERN LI SOUND NOT AVBL ROBBINS REEF 1736 10/ 16/ 21 1010.7 $$ >>>>>>>>>>>>>>>>>>>>>>>>>>>> KEY <<<<<<<<<<<<<<<<<<<<<<<<<<< > < > SKY/WX - Sky Condition/Present Weather < > TMP - Temperature in Fahrenheit < > DP - Dew Point in Fahrenheit < > RH - Relative Humidity in Percent < > WIND - Direction (from) and Speed in MPH < > PRES - Mean Sea Level Pressure (inches of Hg) < > WCI - Wind Chill Index < > VSB - VISIBILITY IN MILES < > HX - HEAT INDEX < > TC - TEMPERATURE IN CELSIUS < > VRB - VARIABLE WIND DIRECTION < > < >>>>>>>>>>>>>>>>>>>>>>>>>>>> KEY <<<<<<<<<<<<<<<<<<<<<<<<<<<

USA.gov is the U.S. government's official web portal to all federal, state and local government web resources and services.